Tracking 31027 objects as of 19-Jul-2025
HD Live streaming from Space Station
objects crossing your sky now

STARLINK-2564

Track STARLINK-2564 now!
10-day predictions
STARLINK-2564 is classified as:


NORAD ID: 48284
Int'l Code: 2021-036J
Perigee: 553.4 km
Apogee: 555.3 km
Inclination: 53.1 °
Period: 95.6 minutes
Semi major axis: 6925 km
RCS: Unknown
Launch date: April 29, 2021
Source: United States (US)
Launch site: AIR FORCE EASTERN TEST RANGE (AFETR)
Your satellite tracking list
KL-BETA B
Track 1 satellite(s)




NASA's NSSDC Master Catalog

Two Line Element Set (TLE):
1 48284U 21036J   25199.85467174  .00000644  00000-0  62108-4 0  9991
2 48284  53.0547  51.3439 0001340  91.0977 269.0165 15.06404146233646
Source of the keplerian elements: AFSPC